Regional Weather Roundup
Issued by NWS

Home | Current Version | Previous Version | Text Only | Print | Product List | Glossary On
Versions: 1 2 3 4 5 6 7 8 9 10 11 12 13 14 15 16 17 18 19 20 21 22 23 24 25 26 27 28 29 30 31 32 33 34 35 36 37 38 39 40 41 42 43 44 45 46 47 48 49 50
000
ASUS46 KLOX 061013
RWRCA

SOUTHERN CALIFORNIA WEATHER ROUNDUP
NATIONAL WEATHER SERVICE OXNARD CALIFORNIA
300 AM PDT FRI MAY 06 2016

NOTE: "FAIR" INDICATES FEW OR NO CLOUDS BELOW 12,000 FEET WITH NO
SIGNIFICANT WEATHER AND/OR OBSTRUCTIONS TO VISIBILITY.

  -  STATIONS PRECEEDED BY AN ASTERISK (*) ARE NOT NWS OR FAA
     STATIONS AND ARE NOT SUBJECT TO NWS AND FAA QUALITY CONTROL.

CAZ041-042-087-061100-
LA AND ORANGE COUNTY COASTAL AREAS


CITY           SKY/WX    TMP DP  RH WIND       PRES   REMARKS
L.A. DOWNTOWN  CLOUDY    57  54  89 CALM      29.84F
L.A. AIRPORT   MOCLDY    59  54  83 CALM      29.84F
LONG BEACH     PTCLDY    58  54  86 N3        29.84F

CITY           SKY/WX    TMP DP  RH WIND       PRES   REMARKS
AVALON           N/A     59 N/A N/A MISG        N/A
FULLERTON      PTCLDY    58  54  86 CALM      29.83F
HAWTHORNE      PTCLDY    57  54  89 CALM      29.84F
*LEO CARRILLO    N/A     55  48  77 N5          N/A
*LOS ALAMITOS  MOCLDY    56  54  91 N2        29.83F
*REDONDO BEACH   N/A     55  51  87 CALM      29.84F
SANTA ANA      CLOUDY    59  54  83 CALM      29.83F
STA MONICA APT CLOUDY    58  51  78 CALM      29.84F
*STA MON PIER    N/A     59  53  81 N2        29.77F
*UCLA            N/A     55  50  82 CALM      29.81F

$$

CAZ547-548-048-061100-
LA COUNTY VALLEYS AND INLAND EMPIRE


CITY           SKY/WX    TMP DP  RH WIND       PRES   REMARKS
BURBANK        CLOUDY    56  48  74 CALM      29.83F
VAN NUYS       CLOUDY    56  47  71 CALM      29.84F

CITY           SKY/WX    TMP DP  RH WIND       PRES   REMARKS
CORONA AIRPORT PTSUNNY   51  49  92 CALM      29.84F
*CHATSWORTH      N/A     55  49  79 CALM      29.85F
CHINO          PTCLDY    55  52  89 W5        29.85F
*CLAREMONT       N/A     49  46  90 CALM        N/A
MARCH AFB      MOCLDY    50  50 100 NW3       29.83F
*NORTHRIDGE      N/A     55  48  76 CALM        N/A
ONTARIO        PTCLDY    54  51  90 SW8       29.83F
*PASADENA        N/A     57  52  82 E2          N/A
RIVERSIDE      MOCLDY    55  52  89 NE3       29.84F
SAN BERNARDINO NOT AVBL
*SAN GABRIEL     N/A     56  54  92 CALM      29.91F
*SAN RAFAEL HI   N/A     52  49  90 CALM        N/A
*SAUGUS          N/A     52  48  86 S5          N/A
*WHITEMAN AP   NOT AVBL
*WHITTIER HILL   N/A     54  53  97 NW2         N/A
*WOODLAND HILL   N/A     54  46  76 SW2         N/A

$$

CAZ054-055-061100-
LA AND SAN BERNARDINO COUNTY MOUNTAINS


CITY           SKY/WX    TMP DP  RH WIND       PRES   REMARKS
*ACTON           N/A     47  45  91 CALM        N/A
*BIG BEAR AIRP CLOUDY    36  32  87 W7        29.85S WCI  30
*BIG PINES       N/A     33  32  96 S3          N/A
*CHILAO          N/A     38  38 100 S2          N/A
SANDBERG       FOG       44  41  89 S5        29.85F VSB 1/4
*WARM SPRINGS    N/A     44  31  60 CALM        N/A

$$

CAZ028-029-059-060-099-061100-
ANTELOPE VALLEY AND SURROUNDING AREAS


CITY           SKY/WX    TMP DP  RH WIND       PRES   REMARKS
LANCASTER      MOCLDY    51  43  74 SW12      29.83F
PALMDALE       CLEAR     49  42  77 SW15      29.82F
*POPPY PARK      N/A     48  43  82 SW12        N/A

CITY           SKY/WX    TMP DP  RH WIND       PRES   REMARKS
29 PALMS       CLEAR     55  36  48 W8        29.83S
BARSTOW/DAGGET CLEAR     55  43  63 W16       29.79S
BISHOP         LGT RAIN  46  43  89 N13       29.83F
CHINA LAKE     CLEAR     53  39  59 S12       29.73F
EDWARDS AFB    CLEAR     49  43  80 SW13      29.79F
MOJAVE         PTCLDY    50  41  71 W20       29.80F
NEEDLES        PTCLDY    71  41  33 SW10      29.68S
VICTORVILLE    CLEAR     45  39  81 CALM      29.81F

$$

CAZ039-040-061100-
VENTURA AND SANTA BARBARA COUNTY COAST


CITY           SKY/WX    TMP DP  RH WIND       PRES   REMARKS
CAMARILLO      CLOUDY    57  52  83 SE3       29.84F
NWS OXNARD       N/A     58  54  85 CALM      29.83F
OXNARD AIRPORT CLOUDY    58  54  86 W6        29.84F
*POINT MUGU    CLOUDY    58  55  90 CALM      29.85F
SBA APT/GOLETA CLOUDY    57  53  86 CALM      29.84F
*SANTA BARBARA   N/A     58  51  77 CALM      29.91F
*VENTURA         N/A     56  52  87 CALM      29.82F

$$

CAZ044-045-061100-
VENTURA COUNTY VALLEYS


CITY           SKY/WX    TMP DP  RH WIND       PRES   REMARKS
*SIMI VALLEY     N/A     54  51  87 CALM      29.81F
*WESTLAKE VILL   N/A     48  45  90 CALM      29.83F
*OJAI            N/A     52  49  90 CALM      29.79F
*FILLMORE        N/A     57  52  83 CALM      29.74S

$$

CAZ053-061100-
VENTURA COUNTY MOUNTAINS


CITY           SKY/WX    TMP DP  RH WIND       PRES   REMARKS
*LOCKWOOD VLY    N/A     37  36  93 MISG        N/A
*ROSE VALLEY     N/A     45  46 100 MISG        N/A

$$

CAZ034-035-036-061100-
CENTRAL COAST AND SANTA YNEZ VALLEY


CITY           SKY/WX    TMP DP  RH WIND       PRES   REMARKS
SAN LUIS OBISP PTCLDY    54  50  86 CALM      29.84F
SANTA MARIA    CLOUDY    53  53 100 CALM      29.84F

CITY           SKY/WX    TMP DP  RH WIND       PRES   REMARKS
*CAL POLY SLO    N/A     52  52 100 NE5         N/A
*LOMPOC        CLOUDY    54  50  86 E5        29.84F
*PISMO BEACH     N/A     55  52  90 CALM      29.85S
*SANTA YNEZ    CLOUDY    54  46  76 CALM      29.85S

$$

CAZ037-038-051-061100-
SAN LUIS OBISPO COUNTY INTERIOR AND CUYAMA VALLEY


CITY           SKY/WX    TMP DP  RH WIND       PRES   REMARKS
*CUYAMA          N/A     48  46  91 N3        29.80S
PASO ROBLES    MOCLDY    49  46  90 CALM      29.84S

$$

CAZ032-033-061-061100-
SOUTHERN DESERTS


CITY           SKY/WX    TMP DP  RH WIND       PRES   REMARKS
BLYTHE         PTCLDY    63  46  54 S13       29.72F
IMPERIAL       CLEAR     65  45  48 W14       29.75S
PALM SPRINGS   PTCLDY    62  43  49 SE3       29.75S
THERMAL        CLEAR     64  44  48 N9        29.72S

$$

ELSEWHERE ACROSS THE WESTERN UNITED STATES AND MEXICO


CITY           SKY/WX    TMP DP  RH WIND       PRES   REMARKS
DEATH VALLEY,    N/A     68  42  40 S8          N/A
DENVER, CO     CLOUDY    51  39  63 S9        29.96F
GRAND CANYON,  MOCLDY    50  18  28 E9G17     29.95S
HONOLULU, HI   MOCLDY    75  66  73 N8        30.06F
KAHULUI, MAUI  CLOUDY    75  70  83 S14       30.05F
LAKE TAHOE, CA LGT RAIN  35  34  96 CALM      29.86F
LAS VEGAS, NV  PTCLDY    63  39  41 S18       29.66F
MAMMOTH LAKES, CLOUDY    35  34  98 NW5       29.87F WCI  30
MEXICO CITY, M PTCLDY    57  45  62 NE7       30.31S
PHOENIX, AZ    PTCLDY    70  40  33 N7        29.77S
PORTLAND, OR   MOCLDY    57  46  66 NW5       30.01F
RENO, NV       LGT RAIN  46  42  86 S3        29.85F
SALT LAKE CITY CLOUDY    71  36  27 E12       29.78F
SAN DIEGO, CA  LGT RAIN  60  54  80 CALM      29.87S
SAN FRANCISCO, CLOUDY    55  52  89 W6        29.86F
SAN JOSE, CA   CLOUDY    58  52  80 NW12      29.86F
SEATTLE, WA    PTCLDY    54  43  66 NE3       30.06F
TIJUANA, MEX   CLOUDY    59  50  72 CALM      29.87F

$$

STATION/POSITION TIME  TEMP    WIND        PRES    VSBY  WAVE
                       AIR SEA DIR/SP/G                  HT/PER
                 (UTC) (F)     (DEG/KT/KT) (MB)    (MI)  (FT/S)
POINT ARGUELLO B NOT AVBL
WEST SANTA BARBA 0950   57 57  300/  2/  2 1010.2F         5/10
POINT CONCEPTION NOT AVBL
EAST SANTA BARBA 0900   57 57  230/  4/  6 1011.5F
SANTA MONICA BAY 0950   59 60  290/  4/  6 1010.9F         3/14


USA.gov is the U.S. government's official web portal to all federal, state and local government web resources and services.